Location: Oshawa
(43.9000°N, 78.8670°W)
Time: 14:51:03
(UTC-04:00)

Cosmos 1821 Rocket - Visible Passes

Search period start: 05 July 2015 00:00
Search period end: 15 July 2015 00:00
Orbit: 945 x 1005 km, 82.9° (Epoch: 04 July)

Date Brightness Start Highest point End Pass type
(mag) Time Alt. Az. Time Alt. Az. Time Alt. Az.
06 Jul 6.1 21:50:37 10° SW 21:56:07 30° WNW 22:01:28 10° N visible
07 Jul 6.7 22:17:49 10° WSW 22:21:59 17° WNW 22:25:52 10° NNW visible
09 Jul 5.9 21:21:00 10° SW 21:26:42 34° WNW 21:32:17 10° N visible
10 Jul 6.7 21:47:56 10° WSW 21:52:30 20° WNW 21:56:51 10° NNW visible
11 Jul 7.3 22:16:36 10° WNW 22:18:33 11° WNW 22:20:06 10° NW visible
14 Jul 7.2 21:46:03 10° W 21:49:01 13° WNW 21:51:38 10° NW visible
